CW3821 Weather Reports


time (UTC)temp
C
wind
direction
speed
KPH
gust
KPH
rain 1hr
cm
rain 24hr
cm
rain mn
cm
humidity
%
barometer
mb
20260906221505 33 92 3.2 0.0 0.00 0.00 0.00 24 997.9
20260906220053 32 322 6.4 0.0 0.00 0.00 0.00 26 998.0
20260906214536 32 11 3.2 0.0 0.00 0.00 0.00 26 998.2
20260906213020 31 332 4.8 0.0 0.00 0.00 0.00 26 998.5
20260906211515 31 21 6.4 0.0 0.00 0.00 0.00 27 999.3
20260906210057 31 55 9.7 0.0 0.00 0.00 0.00 27 999.2
20260906204559 30 347 8.0 0.0 0.00 0.00 0.00 28 999.8
20260906203024 30 64 8.0 0.0 0.00 0.00 0.00 29 999.9
20260906201513 30 96 4.8 0.0 0.00 0.00 0.00 28 1000.0
20260906200059 30 3 4.8 0.0 0.00 0.00 0.00 28 1000.1
20260906194540 30 128 6.4 0.0 0.00 0.00 0.00 29 999.9
20260906193031 29 35 3.2 0.0 0.00 0.00 0.00 29 1000.5
20260906191519 28 349 4.8 0.0 0.00 0.00 0.00 32 1000.5
20260906190049 28 24 6.4 0.0 0.00 0.00 0.00 33 1001.2
20260906184531 28 58 4.8 0.0 0.00 0.00 0.00 34 1001.6
20260906183025 27 79 6.4 0.0 0.00 0.00 0.00 37 1001.7
20260906181508 27 83 3.2 0.0 0.00 0.00 0.00 38 1001.9
20260906180104 27 8 3.2 0.0 0.00 0.00 0.00 37 1002.2
20260906174541 26 66 3.2 0.0 0.00 0.00 0.00 38 1002.5
20260906173021 26 168 3.2 0.0 0.00 0.00 0.00 40 1002.9
20260906171511 26 120 1.6 0.0 0.00 0.00 0.00 44 1003.5
20260906170059 26 308 1.6 0.0 0.00 0.00 0.00 44 1003.4
20260906164532 25 219 3.2 0.0 0.00 0.00 0.00 47 1003.9
20260906163017 25 102 1.6 0.0 0.00 0.00 0.00 48 1003.8
20260906161514 23 51 3.2 0.0 0.00 0.00 0.00 50 1004.0
20260906160053 23 106 1.6 0.0 0.00 0.00 0.00 55 1004.2
20260906154536 23 47 1.6 0.0 0.00 0.00 0.00 56 1003.9
20260906153027 22 49 1.6 0.0 0.00 0.00 0.00 60 1004.3
20260906151510 22 339 1.6 0.0 0.00 0.00 0.00 62 1004.7
20260906150052 21 350 1.6 0.0 0.00 0.00 0.00 63 1004.7
20260906144535 21 313 1.6 0.0 0.00 0.00 0.00 64 1005.1
20260906143021 20 281 0.0 0.0 0.00 0.00 0.00 65 1005.1
20260906141555 20 309 1.6 0.0 0.00 0.00 0.00 68 1005.3
20260906140035 19 277 3.2 0.0 0.00 0.00 0.00 68 1004.6
20260906134521 18 315 0.0 0.0 0.00 0.00 0.00 69 1005.1
20260906133004 17 287 1.6 0.0 0.00 0.00 0.00 70 1004.9
20260906131546 17 356 0.0 0.0 0.00 0.00 0.00 73 1005.2
20260906130029 17 59 0.0 0.0 0.00 0.00 0.00 74 1004.4
20260906124515 17 61 0.0 0.0 0.00 0.00 0.00 75 1004.0
20260906123058 17 55 0.0 0.0 0.00 0.00 0.00 75 1004.0
20260906121536 17 66 0.0 0.0 0.00 0.00 0.00 75 1004.0
20260906120025 17 51 1.6 0.0 0.00 0.00 0.00 74 1003.5
20260906114517 17 45 1.6 0.0 0.00 0.00 0.00 73 1003.4
20260906113101 17 52 1.6 0.0 0.00 0.00 0.00 70 1003.5
20260906111539 18 38 1.6 0.0 0.00 0.00 0.00 67 1003.2
20260906110027 18 49 3.2 0.0 0.00 0.00 0.00 64 1002.4
20260906104519 18 56 3.2 0.0 0.00 0.00 0.00 62 1002.4
20260906103056 19 30 3.2 0.0 0.00 0.00 0.00 61 1002.1
20260906101539 19 32 3.2 0.0 0.00 0.00 0.00 57 1001.7
20260906100019 20 35 1.6 0.0 0.00 0.00 0.00 54 1002.2
20260906094532 20 45 0.0 0.0 0.00 0.00 0.00 51 1002.1
20260906093011 20 58 1.6 0.0 0.00 0.00 0.00 50 1002.0
20260906091544 20 66 1.6 0.0 0.00 0.00 0.00 51 1001.9
20260906090029 21 103 0.0 0.0 0.00 0.00 0.00 49 1001.7
20260906084509 21 95 0.0 0.0 0.00 0.00 0.00 47 1001.2
20260906083100 21 79 0.0 0.0 0.00 0.00 0.00 46 1001.3
20260906081536 22 3 0.0 0.0 0.00 0.00 0.00 44 1001.3
20260906080028 22 243 1.6 0.0 0.00 0.00 0.00 42 1001.2
20260906074513 22 240 3.2 0.0 0.00 0.00 0.00 41 1000.6
20260906073048 22 272 4.8 0.0 0.00 0.00 0.00 41 1000.4
20260906071537 22 251 9.7 0.0 0.00 0.00 0.00 42 1000.4
20260906070013 22 336 9.7 0.0 0.00 0.00 0.00 42 1000.7
20260906064600 22 325 4.8 0.0 0.00 0.00 0.00 44 1001.4
20260906064503 22 16 3.2 0.0 0.00 0.00 0.00 44 1001.4
20260906063039 22 14 0.0 0.0 0.00 0.00 0.00 46 1001.6
20260906061526 22 14 0.0 0.0 0.00 0.00 0.00 43 1001.4
20260906060011 23 11 1.6 0.0 0.00 0.00 0.00 42 1001.8
20260906054545 23 13 3.2 0.0 0.00 0.00 0.00 41 1001.6
20260906053024 24 16 1.6 0.0 0.00 0.00 0.00 38 1001.7
20260906051510 25 13 1.6 0.0 0.00 0.00 0.00 36 1002.0
20260906050048 25 13 1.6 0.0 0.00 0.00 0.00 34 1002.3
20260906044534 25 11 4.8 0.0 0.00 0.00 0.00 32 1002.5
20260906043028 24 8 6.4 0.0 0.00 0.00 0.00 32 1002.4
20260906041506 25 8 1.6 0.0 0.00 0.00 0.00 32 1001.8
20260906040052 25 17 3.2 0.0 0.00 0.00 0.00 30 1001.7
20260906034535 24 17 1.6 0.0 0.00 0.00 0.00 33 1001.4
20260906033023 24 13 0.0 0.0 0.00 0.00 0.00 34 1001.6
20260906031554 24 13 0.0 0.0 0.00 0.00 0.00 33 1001.2
20260906030043 25 13 0.0 0.0 0.00 0.00 0.00 32 1001.9
20260906024526 26 17 0.0 0.0 0.00 0.00 0.00 30 1001.2
20260906023016 27 305 1.6 0.0 0.00 0.00 0.00 26 1000.8
20260906021609 27 357 3.2 0.0 0.00 0.00 0.00 25 1000.7
20260906020048 27 305 6.4 0.0 0.00 0.00 0.00 24 1001.7
20260906014548 28 340 1.6 0.0 0.00 0.00 0.00 24 1001.6
20260906013018 28 356 3.2 0.0 0.00 0.00 0.00 23 1001.0
20260906011559 29 169 4.8 0.0 0.00 0.00 0.00 22 1000.7
20260906011502 29 176 4.8 0.0 0.00 0.00 0.00 22 1000.7
20260906010044 30 233 4.8 0.0 0.00 0.00 0.00 21 1001.9
20260906004538 31 280 3.2 0.0 0.00 0.00 0.00 20 1001.6
20260906003020 31 0 1.6 0.0 0.00 0.00 0.00 19 1001.6
20260906001554 31 8 1.6 0.0 0.00 0.00 0.00 18 1001.2
20260906000044 31 359 3.2 0.0 0.00 0.00 0.00 18 1001.1
20260905234527 32 0 4.8 0.0 0.00 0.00 0.00 17 1001.2
20260905233012 32 347 4.8 0.0 0.00 0.00 0.00 17 1000.8
20260905231554 33 62 1.6 0.0 0.00 0.00 0.00 16 1000.7
20260905231504 33 76 1.6 0.0 0.00 0.00 0.00 16 1000.7
20260905230045 33 281 3.2 0.0 0.00 0.00 0.00 16 1000.3
20260905224535 33 254 3.2 0.0 0.00 0.00 0.00 16 1000.3
20260905223013 32 199 4.8 0.0 0.00 0.00 0.00 18 1000.4